• In Hungary
  • List of Countries
  • For 7 days
  • Water Temperature
  • Satellite Maps
  • Weather Map
  • News
  • Weather Widgets
  • user-avatar
    Login

    Hourly Weather Stan'kova

    Today, 19 February, Monday

    Time Temperature Precipitation Wind Pressure Humidity
    00:00 -4°C° 0 mm 1 mps 740 mmHg 93%
    01:00 -6°C° 0 mm 1 mps 740 mmHg 93%
    02:00 -6°C° 0 mm 1 mps 740 mmHg 93%
    03:00 -6°C° 0 mm 1 mps 740 mmHg 93%
    04:00 -7°C° 0 mm 1 mps 740 mmHg 92%
    05:00 -7°C° 0 mm 1 mps 739 mmHg 92%
    06:00 -8°C° 0 mm 1 mps 740 mmHg 92%
    07:00 -8°C° 0 mm 1 mps 740 mmHg 91%
    08:00 -8°C° 0 mm 1 mps 740 mmHg 91%
    09:00 -6°C° 0 mm 1 mps 740 mmHg 88%
    10:00 -4°C° 0 mm 1 mps 740 mmHg 85%
    11:00 -2°C° 0 mm 1 mps 740 mmHg 82%
    12:00 -1°C° 0 mm 1 mps 739 mmHg 81%
    13:00 -1°C° 0 mm 1 mps 739 mmHg 81%
    14:00 -2°C° 0 mm 2 mps 739 mmHg 80%
    15:00 -3°C° 0 mm 2 mps 738 mmHg 83%
    16:00 -3°C° 0 mm 2 mps 738 mmHg 86%
    17:00 -4°C° 0 mm 2 mps 738 mmHg 89%
    18:00 -5°C° 0 mm 2 mps 738 mmHg 91%
    19:00 -6°C° 0 mm 2 mps 738 mmHg 92%
    20:00 -7°C° 0 mm 2 mps 738 mmHg 93%
    21:00 -7°C° 0 mm 2 mps 738 mmHg 93%
    22:00 -8°C° 0 mm 2 mps 737 mmHg 93%
    23:00 -8°C° 0 mm 2 mps 737 mmHg 93%

    Tomorrow, 20 February, Tuesday

    Time Temperature Precipitation Wind Pressure Humidity
    00:00 -8°C° 0 mm 2 mps 737 mmHg 93%
    01:00 -8°C° 0 mm 2 mps 737 mmHg 92%
    02:00 -9°C° 0 mm 2 mps 737 mmHg 92%
    03:00 -9°C° 0 mm 2 mps 737 mmHg 91%
    04:00 -9°C° 0 mm 2 mps 737 mmHg 91%
    05:00 -9°C° 0 mm 2 mps 736 mmHg 91%
    06:00 -10°C° 0 mm 3 mps 736 mmHg 90%
    07:00 -10°C° 0 mm 3 mps 736 mmHg 90%
    08:00 -10°C° 0 mm 3 mps 736 mmHg 90%
    09:00 -8°C° 0 mm 3 mps 736 mmHg 88%
    10:00 -8°C° 0 mm 4 mps 736 mmHg 87%
    11:00 -5°C° 0 mm 4 mps 736 mmHg 85%
    12:00 -5°C° 0 mm 4 mps 735 mmHg 85%
    13:00 -4°C° 0 mm 4 mps 735 mmHg 84%
    14:00 -4°C° 0 mm 5 mps 735 mmHg 84%
    15:00 -4°C° 0 mm 4 mps 735 mmHg 85%
    16:00 -4°C° 0 mm 4 mps 735 mmHg 86%
    17:00 -4°C° 0 mm 4 mps 734 mmHg 88%
    18:00 -5°C° 0 mm 4 mps 735 mmHg 89%
    19:00 -7°C° 0 mm 4 mps 735 mmHg 91%
    20:00 -7°C° 0 mm 4 mps 735 mmHg 92%
    21:00 -7°C° 0 mm 4 mps 735 mmHg 92%
    22:00 -7°C° 0 mm 4 mps 735 mmHg 92%
    23:00 -8°C° 0 mm 4 mps 735 mmHg 92%

    Day after tomorrow, 21 February, Wednesday

    Time Temperature Precipitation Wind Pressure Humidity
    00:00 -8°C° 0 mm 4 mps 735 mmHg 92%
    01:00 -8°C° 0 mm 4 mps 735 mmHg 92%
    02:00 -8°C° 0 mm 4 mps 735 mmHg 92%
    03:00 -8°C° 0 mm 4 mps 735 mmHg 92%
    04:00 -7°C° 0 mm 3 mps 734 mmHg 93%
    05:00 -8°C° 0 mm 3 mps 734 mmHg 93%
    06:00 -7°C° 0 mm 3 mps 734 mmHg 93%
    07:00 -7°C° 0 mm 3 mps 734 mmHg 92%
    08:00 -7°C° 0 mm 3 mps 734 mmHg 92%
    09:00 -7°C° 0 mm 4 mps 734 mmHg 91%
    10:00 -5°C° 0 mm 4 mps 734 mmHg 89%
    11:00 -4°C° 0 mm 4 mps 734 mmHg 88%
    12:00 -4°C° 0.1 mm 4 mps 734 mmHg 88%
    13:00 -3°C° 0.1 mm 4 mps 734 mmHg 88%
    14:00 -2°C° 0.1 mm 3 mps 734 mmHg 88%
    15:00 -2°C° 0 mm 3 mps 734 mmHg 89%
    16:00 -2°C° 0 mm 3 mps 734 mmHg 90%
    17:00 -2°C° 0 mm 3 mps 734 mmHg 91%
    18:00 -2°C° 0.1 mm 3 mps 734 mmHg 92%
    19:00 -4°C° 0.1 mm 3 mps 734 mmHg 93%
    20:00 -3°C° 0.1 mm 2 mps 734 mmHg 94%
    21:00 -3°C° 0 mm 2 mps 734 mmHg 94%
    22:00 -3°C° 0 mm 2 mps 735 mmHg 95%
    23:00 -4°C° 0 mm 2 mps 735 mmHg 95%

    22 February, Thursday

    Time Temperature Precipitation Wind Pressure Humidity
    00:00 -5°C° 0 mm 3 mps 735 mmHg 95%
    01:00 -5°C° 0 mm 3 mps 735 mmHg 95%
    02:00 -5°C° 0 mm 3 mps 735 mmHg 95%
    03:00 -5°C° 0 mm 3 mps 735 mmHg 95%
    04:00 -5°C° 0 mm 3 mps 734 mmHg 95%
    05:00 -4°C° 0 mm 2 mps 734 mmHg 95%
    06:00 -5°C° 0 mm 3 mps 734 mmHg 95%
    07:00 -6°C° 0 mm 3 mps 734 mmHg 95%
    08:00 -6°C° 0 mm 3 mps 735 mmHg 95%
    09:00 -5°C° 0 mm 3 mps 735 mmHg 93%
    10:00 -5°C° 0 mm 3 mps 735 mmHg 92%
    11:00 -4°C° 0 mm 4 mps 734 mmHg 90%
    12:00 -4°C° 0 mm 4 mps 734 mmHg 89%
    13:00 -4°C° 0 mm 4 mps 734 mmHg 87%
    14:00 -3°C° 0 mm 4 mps 734 mmHg 86%
    15:00 -3°C° 0 mm 4 mps 734 mmHg 87%
    16:00 -4°C° 0 mm 3 mps 734 mmHg 88%
    17:00 -4°C° 0 mm 3 mps 734 mmHg 88%
    18:00 -4°C° 0 mm 3 mps 734 mmHg 90%
    19:00 -5°C° 0 mm 3 mps 734 mmHg 91%
    20:00 -5°C° 0 mm 3 mps 734 mmHg 93%
    21:00 -5°C° 0 mm 3 mps 734 mmHg 93%
    22:00 -6°C° 0 mm 3 mps 734 mmHg 93%
    23:00 -5°C° 0 mm 2 mps 734 mmHg 93%

    23 February, Friday

    Time Temperature Precipitation Wind Pressure Humidity
    00:00 -5°C° 0 mm 2 mps 734 mmHg 94%
    01:00 -5°C° 0 mm 2 mps 734 mmHg 94%
    02:00 -5°C° 0 mm 2 mps 734 mmHg 95%
    03:00 -5°C° 0 mm 2 mps 734 mmHg 95%
    04:00 -5°C° 0 mm 2 mps 733 mmHg 95%
    05:00 -5°C° 0 mm 2 mps 733 mmHg 96%
    06:00 -3°C° 0.1 mm 1 mps 733 mmHg 96%
    07:00 -3°C° 0.1 mm 1 mps 733 mmHg 96%
    08:00 -3°C° 0.1 mm 1 mps 733 mmHg 96%
    09:00 -3°C° 0.2 mm 1 mps 733 mmHg 94%
    10:00 -4°C° 0.2 mm 2 mps 733 mmHg 93%
    11:00 -4°C° 0.2 mm 2 mps 733 mmHg 92%
    12:00 -4°C° 0.3 mm 2 mps 733 mmHg 91%
    13:00 -3°C° 0.3 mm 2 mps 733 mmHg 91%
    14:00 -4°C° 0.3 mm 3 mps 733 mmHg 91%
    15:00 -5°C° 0.4 mm 3 mps 733 mmHg 92%
    16:00 -5°C° 0.4 mm 3 mps 733 mmHg 92%
    17:00 -5°C° 0.4 mm 4 mps 733 mmHg 93%
    18:00 -7°C° 0.4 mm 4 mps 733 mmHg 93%
    19:00 -7°C° 0.4 mm 4 mps 733 mmHg 92%
    20:00 -8°C° 0.4 mm 4 mps 733 mmHg 92%
    21:00 -9°C° 0.2 mm 4 mps 733 mmHg 92%
    22:00 -10°C° 0.2 mm 4 mps 734 mmHg 92%
    23:00 -10°C° 0.2 mm 4 mps 734 mmHg 92%

    24 February, Saturday

    Time Temperature Precipitation Wind Pressure Humidity
    00:00 -11°C° 0.1 mm 4 mps 734 mmHg 91%
    01:00 -12°C° 0.1 mm 4 mps 734 mmHg 91%
    02:00 -14°C° 0.1 mm 4 mps 734 mmHg 90%
    03:00 -15°C° 0 mm 4 mps 734 mmHg 90%
    04:00 -15°C° 0 mm 4 mps 734 mmHg 90%
    05:00 -16°C° 0 mm 4 mps 734 mmHg 90%
    06:00 -16°C° 0 mm 4 mps 734 mmHg 90%
    07:00 -17°C° 0 mm 4 mps 734 mmHg 90%
    08:00 -17°C° 0 mm 4 mps 734 mmHg 90%
    09:00 -16°C° 0 mm 4 mps 734 mmHg 88%
    10:00 -17°C° 0 mm 5 mps 734 mmHg 86%
    11:00 -15°C° 0 mm 5 mps 734 mmHg 83%
    12:00 -15°C° 0.1 mm 5 mps 734 mmHg 82%
    13:00 -14°C° 0.1 mm 5 mps 734 mmHg 80%
    14:00 -14°C° 0.1 mm 5 mps 734 mmHg 79%
    15:00 -14°C° 0.1 mm 5 mps 734 mmHg 80%
    16:00 -14°C° 0.1 mm 5 mps 734 mmHg 80%
    17:00 -14°C° 0.1 mm 5 mps 734 mmHg 81%
    18:00 -15°C° 0 mm 4 mps 734 mmHg 83%
    19:00 -14°C° 0 mm 3 mps 734 mmHg 86%
    20:00 -14°C° 0 mm 2 mps 734 mmHg 89%
    21:00 -14°C° 0 mm 2 mps 734 mmHg 90%
    22:00 -16°C° 0 mm 3 mps 734 mmHg 90%
    23:00 -16°C° 0 mm 3 mps 734 mmHg 90%
    Show more